Regional Weather Roundup
Issued by NWS

Home | Current Version | Previous Version | Graphics & Text | Print | Product List | Glossary On
Versions: 1 2 3 4 5 6 7 8 9 10 11 12 13 14 15 16 17 18 19 20 21 22 23 24 25 26 27 28 29 30 31 32 33 34 35 36 37 38 39 40 41 42 43 44 45 46 47 48 49 50
000
ASUS45 KSLC 011710
RWRUT
UTAH REGIONAL WEATHER ROUNDUP
NATIONAL WEATHER SERVICE SALT LAKE CITY UT
1100 AM MDT SAT AUG 01 2015

UTZ001>011-023>025-011800-

NORTHERN UTAH

CITY           SKY/WX    TMP DP  RH WIND       PRES   REMARKS
BRIGHAM CITY   SUNNY     80  32  17 CALM      30.15F
HILL AFB       SUNNY     80  40  24 E8        30.18F
LOGAN          SUNNY     75  41  29 VRB3      30.18F
OGDEN          SUNNY     83  38  20 NE8       30.15F
PROVO AIRPORT  MOSUNNY   73  45  35 CALM      30.18F
SALT LAKE CITY PTSUNNY   84  37  18 VRB3      30.14F
VERNAL         SUNNY     80  34  19 E3        30.20F
WENDOVER       SUNNY     82  28  14 SE3       30.15F
HEBER CITY     MOSUNNY   70  34  26 CALM      30.26F
WEST JORDAN    SUNNY     82  36  18 SE6       30.17F

$$

UTZ012>022-026-027-011800-

SOUTHERN/CENTRAL UTAH

CITY           SKY/WX    TMP DP  RH WIND       PRES   REMARKS
BLANDING       CLOUDY    63  61  94 SW10      30.40R VSB 1
BRYCE CANYON   CLOUDY    70  44  39 SE3       30.40S
CEDAR CITY     CLOUDY    81  45  28 CALM      30.23F THUNDER
DELTA          PTSUNNY   82  38  20 S3        30.17F
HANKSVILLE     CLOUDY    82  50  32 CALM      30.17S
MILFORD        MOSUNNY   82  47  29 S10       30.18F
MOAB/CYNLANDS  SUNNY     86  53  32 W7        30.14S
PRICE          SUNNY     81  36  19 VRB6      30.26F
ST GEORGE      MOSUNNY   86  54  32 S5        30.07F
KANAB          CLOUDY    75  54  46 CALM      30.27S

$$

REGIONAL REPORTS     COLORADO/ARIZONA

CITY           SKY/WX    TMP DP  RH WIND       PRES   REMARKS
CRAIG, CO      SUNNY     82  43  25 N7        30.27F
GRAND JUNCTION SUNNY     83  49  30 VRB5      30.17F
RIFLE          SUNNY     81  46  29 VRB3      30.23F
MONTROSE       MOSUNNY   79  48  33 CALM      30.27F
CORTEZ         LGT RAIN  63  61  93 N6        30.33S
PAGE, AZ       CLOUDY    81  55  40 CALM      30.16F
GRAND CANYON   CLOUDY    64  60  87 CALM      30.36F
KINGMAN        CLOUDY    83  54  36 W16       30.13S
FLAGSTAFF      CLOUDY    68  52  56 VRB3      30.37S

$$

REGIONAL REPORTS    NEVADA/IDAHO/WYOMING

CITY           SKY/WX    TMP DP  RH WIND       PRES   REMARKS
LAS VEGAS, NV  CLOUDY    92  56  29 S10G16    29.96R HX  90
ELY            PTSUNNY   77  34  21 CALM      30.29F
ELKO           SUNNY     79  27  14 CALM      30.20F
POCATELLO, ID  SUNNY     79  37  22 VRB3      30.18F
BURLEY         SUNNY     80  44  27 N3        30.14S
EVANSTON, WY   SUNNY     76  32  20 NW5       30.35F
ROCK SPRINGS   SUNNY     75  32  20 VRB3      30.32S
KEMMERER       SUNNY    N/A N/A N/A N3        30.36S

$$


USA.gov is the U.S. government's official web portal to all federal, state and local government web resources and services.